Regional Weather Roundup
Issued by NWS

Home | Current Version | Previous Version | Graphics & Text | Print | Product List | Glossary On
Versions: 1 2 3 4 5 6 7 8 9 10 11 12 13 14 15 16 17 18 19 20 21 22 23 24 25 26 27 28 29 30 31 32 33 34 35 36 37 38 39 40 41 42 43 44 45 46 47 48 49 50
000
ASUS43 KOAX 301102
RWRNE

WEATHER ROUNDUP FOR NEBRASKA
NATIONAL WEATHER SERVICE OMAHA NE
600 AM CDT MON MAR 30 2015

NOTES: SATELLITE DATA IS BEING USED TO AUGMENT CLOUD COVER ABOVE
       12000 FEET.
       "FAIR" INDICATES FEW OR NO CLOUDS BELOW 12,000 FEET WITH NO
       SIGNIFICANT WEATHER AND/OR OBSTRUCTIONS TO VISIBILITY.

  * THESE STATIONS DO NOT REPORT WEATHER SUCH AS RAIN...SNOW OR FOG.

NEZ001>004-019>022-054>056-301200-
NEBRASKA PANHANDLE

CITY           SKY/WX    TMP DP  RH WIND       PRES   REMARKS
SCOTTSBLUFF    CLEAR     31  23  72 W6        30.05R WCI  25
ALLIANCE       CLEAR     28  20  71 CALM      30.03S
CHADRON        CLEAR     31  24  75 SW8       30.02R WCI  23
KIMBALL        CLEAR     37  23  55 W12       30.07R WCI  30
SIDNEY         CLEAR     35  23  61 W10       30.06R WCI  27
$$

NEZ057>060-069>072-079>082-301200-
SOUTHWEST NEBRASKA

CITY           SKY/WX    TMP DP  RH WIND       PRES   REMARKS
NORTH PLATTE   CLEAR     40  19  43 SW3       30.07F
IMPERIAL         N/A     38  21  50 SW8       30.08F WCI  32
MCCOOK         CLEAR     41  16  36 SW7       30.09F
$$

NEZ005>010-023>029-035>040-094-301200-
NORTH CENTRAL NEBRASKA

CITY           SKY/WX    TMP DP  RH WIND       PRES   REMARKS
VALENTINE      CLEAR     41  21  44 CALM      30.00S
AINSWORTH      CLEAR     45  18  34 SW15      30.01S
BROKEN BOW     CLEAR     41  15  35 S8        30.06F
O`NEILL        CLEAR     37  22  53 SW9       30.03F WCI  31
ORD            CLEAR     32  18  56 CALM      30.06F
$$

NEZ041-046>049-061>064-073>077-083>087-301200-
SOUTH CENTRAL NEBRASKA

CITY           SKY/WX    TMP DP  RH WIND       PRES   REMARKS
GRAND ISLAND   MOCLDY    44  20  38 SW9       30.09F
HASTINGS       CLOUDY    44  19  36 SW10      30.09F
HEBRON         PTCLDY    40  25  54 S3        30.12F
KEARNEY *      MOCLDY    45  18  33 SW14      30.09F
YORK           CLOUDY    39  25  56 SW8       30.10F WCI  34
$$

NEZ011>018-030>034-042>045-301200-
NORTHEAST NEBRASKA

CITY           SKY/WX    TMP DP  RH WIND       PRES   REMARKS
NORFOLK        CLEAR     44  21  40 SW13      30.05F
ALBION         PTCLDY    41  16  35 SE3       30.07F
BLAIR          PTCLDY    39  24  55 S8        30.08F WCI  33
COLUMBUS *     PTCLDY    30  19  64 W3        30.10S
TEKAMAH        CLEAR     30  21  69 SE9       30.08F WCI  22
$$

NEZ050>053-065>068-078-088>093-301200-
SOUTHEAST NEBRASKA

CITY           SKY/WX    TMP DP  RH WIND       PRES   REMARKS
LINCOLN        PTCLDY    37  27  67 S5        30.11F WCI  33
OMAHA EPPLEY   MOCLDY    39  27  62 SE9       30.10F WCI  33
FALLS CITY     PTCLDY    32  26  78 CALM      30.15R
PLATTSMOUTH    MOCLDY    43  22  43 SW9       30.10F
$$

NEZ044-045-051>053-067-301200-
OMAHA AREA

CITY           SKY/WX    TMP DP  RH WIND       PRES   REMARKS
OMAHA EPPLEY   MOCLDY    39  27  62 SE9       30.10F WCI  33
BLAIR          PTCLDY    39  24  55 S8        30.08F WCI  33
OFFUTT AFB     PTCLDY    29  26  86 CALM      30.10F
PLATTSMOUTH    MOCLDY    43  22  43 SW9       30.10F
$$


USA.gov is the U.S. government's official web portal to all federal, state and local government web resources and services.